Regional Weather Roundup
Issued by NWS

Home | Current Version | Previous Version | Text Only | Print | Product List | Glossary Off
Versions: 1 2 3 4 5 6 7 8 9 10 11 12 13 14 15 16 17 18 19 20 21 22 23 24 25 26 27 28 29 30 31 32 33 34 35 36 37 38 39 40 41 42 43 44 45 46 47 48 49 50

052
ASUS43 KLMK 110802
RWRKY
KENTUCKY REGIONAL WEATHER ROUNDUP
NATIONAL WEATHER SERVICE LOUISVILLE KY
300 AM EST THU FEB 11 2016

NOTE "FAIR" INDICATES FEW OR NO CLOUDS BELOW 12,000 FEET
WITH NO SIGNIFICANT WEATHER AND/OR OBSTRUCTIONS TO VISIBILITY.

KYZ001>023-026-027-061>063-070>075-110900-
WESTERN AND SOUTH CENTRAL KENTUCKY

CITY           SKY/WX    TMP DP  RH WIND       PRES   REMARKS
PADUCAH        CLOUDY    26  20  77 E5        30.13F WCI  20
HENDERSON      CLOUDY    21  18  86 CALM      30.18S
OWENSBORO      CLOUDY    23  18  81 CALM      30.19S
HOPKINSVILLE   CLOUDY    24  21  86 E6        30.14F WCI  17
BOWLING GREEN  CLOUDY    25  19  78 E3        30.18S
GLASGOW        NOT AVBL
$$

KYZ024-025-028>034-038-045-046-053-110900-
NORTH CENTRAL KENTUCKY

CITY           SKY/WX    TMP DP  RH WIND       PRES   REMARKS
LOUISVILLE/SDF CLOUDY    21  13  71 NW7       30.18S WCI  12
LOUISVILLE/LOU CLOUDY    21  13  71 W9        30.19R WCI  11
FORT KNOX      CLOUDY    20  14  78 NW3       30.14F
$$

KYZ035>037-039>044-047>052-055>060-089>105-110900-
NORTHEAST KENTUCKY

CITY           SKY/WX    TMP DP  RH WIND       PRES   REMARKS
LEXINGTON      CLOUDY    16   9  74 W3        30.14S
COVINGTON      FLURRIES  14   6  70 W3        30.14S
FRANKFORT      CLOUDY    19   8  62 W3        30.15S
$$

KYZ054-064>069-076>088-106>120-110900-
SOUTHEAST KENTUCKY

CITY           SKY/WX    TMP DP  RH WIND       PRES   REMARKS
JACKSON        CLOUDY    17   8  67 W3        30.11F
LONDON         CLOUDY    20  11  68 W3        30.14S
SOMERSET       NOT AVBL
MIDDLESBORO    CLOUDY    22  13  68 CALM      30.15S
MONTICELLO     CLOUDY    22  17  81 NW6       30.17S WCI  14
$$





USA.gov is the U.S. government's official web portal to all federal, state and local government web resources and services.